Regional Weather Roundup
Issued by NWS Charleston, SC

Current Version | Previous Version | Text Only | Print | Product List | Glossary Off
Versions: 1 2 3 4 5 6 7 8 9 10 11 12 13 14 15 16 17 18 19 20 21 22 23 24 25 26 27 28 29 30 31 32 33 34 35 36 37 38 39 40 41 42 43 44 45 46 47 48 49 50

000
ASUS42 KCHS 230727
RWRCHS

REGIONAL WEATHER ROUNDUP
NATIONAL WEATHER SERVICE CHARLESTON SC
300 AM EDT MON OCT 23 2017

NOTE: "FAIR" INDICATES FEW OR NO CLOUDS BELOW 12,000 FEET WITH NO
SIGNIFICANT WEATHER AND/OR OBSTRUCTIONS TO VISIBILITY.

NOT ALL STATIONS ARE QUALITY CONTROLLED. USE DATA WITH CAUTION...
ESPECIALLY DEWPOINT OBSERVATIONS.

SCZ027-030-031-034>040-042>050-230800-
...SOUTHEAST SOUTH CAROLINA...

CITY           SKY/WX    TMP DP  RH WIND       PRES   REMARKS
N CHARLESTON   HVY RAIN  72  71  97 S12       30.13F FOG
WATERFRONT PRK NOT AVBL
JOHNS ISLAND   CLOUDY    72  72 100 S10       30.13S FOG
PINOPOLIS        N/A     72  70  94 VRB2        N/A
MONCKS CORNER  PTSUNNY   70  70 100 E3        30.13F
SUMMERVILLE    CLOUDY    70  70 100 CALM      30.14F
BEAUFORT MCAS  CLOUDY    73  72  96 MISG      30.11F
BEAUFORT ARPT  CLOUDY    72  70  94 SE3       30.10F
HILTON HEAD IS MOCLDY    73  72  94 VRB5      30.11F
WALTERBORO     CLOUDY    70  70 100 E3        30.13F
ALLENDALE        N/A     72  72 100 SE5         N/A

...SOUTHERN MIDLANDS AND PEE DEE...

CITY           SKY/WX    TMP DP  RH WIND       PRES   REMARKS
GEORGETOWN     FAIR      72  70  94 E9        30.17F
KINGSTREE      HVY RAIN  68  68 100 E5        30.16S
ORANGEBURG     CLOUDY    70  68  93 E6        30.13F
BARNWELL         N/A     72  72 100 E7        30.11F
AIKEN          LGT RAIN  68  68 100 E7        30.15S
MANNING        CLOUDY    70  68  94 MISG      30.15S
COLUMBIA       CLOUDY    69  69 100 E6        30.13F
SUMTER         LGT RAIN  68  66  94 E6        30.12F
FLORENCE       CLOUDY    66  64  93 E8        30.17F
MYRTLE BEACH   LGT RAIN  72  70  94 SE10      30.18F
N MYRTLE BEACH CLOUDY    74  69  85 SE10      30.18F

$$

GAZ063-065-086>088-099>101-113>116-118-119-134>141-150-230800-
...SOUTHEAST GEORGIA...

CITY           SKY/WX    TMP DP  RH WIND       PRES   REMARKS
SAVANNAH ARPT  MOCLDY    73  71  93 SE8       30.10F
HUNTER AAF     PTCLDY    74  71  92 SE7       30.07F
FORT STEWART   PTCLDY    71  69  95 E6        30.06F
STATESBORO     CLOUDY    71  71 100 SE3       30.09F
SYLVANIA       CLOUDY    71  71 100 SE5       30.10F
CLAXTON        CLOUDY    73  72  96 CALM      30.08F

...CSRA...CENTRAL AND FAR SOUTHEAST GEORGIA...

CITY           SKY/WX    TMP DP  RH WIND       PRES   REMARKS
THOMSON        LGT RAIN  68  68  98 S5        30.14F
AUGUSTA-BUSH   CLOUDY    72  70  93 E5        30.09F
AUGUSTA-DANIEL CLOUDY    71  69  93 E7        30.10F
SWAINSBORO     CLOUDY    72  72 100 SE7       30.09S
VIDALIA        CLOUDY    72  72 100 SE3       30.08S
EASTMAN        CLOUDY    74  74 100 SE5       30.08F
HAZLEHURST     FAIR      75  71  88 SE6       30.05F
ALMA           CLOUDY    75  72  90 SE7       30.06F
WAYCROSS       CLOUDY    76  73  90 S6        30.06F
JESUP          NOT AVBL
BAXLEY         CLOUDY    72  72 100 SE5       30.06F
BRUNSWICK      CLOUDY    77  70  78 SE9       30.08F
SAINT SIMONS   CLOUDY    77  74  90 SE10      30.08F

$$

SCZ027-028-034-036>038-045-046-048>050-GAZ119-141-230800-
...LAKE AND SUPPLEMENTAL COASTAL OBSERVATIONS...

STATION/POSITION TIME  TEMP    WIND        PRES    WAVE   SWELL
                       AIR SEA DIR/SP/G            HT/PER HT/PER/DIR
                 (UTC) (F)     (DEG/KT/KT) (MB)    (FT/S) (FT/S/D)
WINYAH BAY       0645   73     110/ 10     1022.0S
LAKE MURRAY      0650   69      90/  9/ 11 1019.6F
ACE BASIN NERRS  0645   72     140/  4     1021.0S
FORT PULASKI     0700   75 74  140/  5/  8 1019.6
SAPELO ISLAND    NOT AVBL

$$

ANZ835-935-AMZ111-154-330-350-352-354-370-450-454-472-230800-
...C-MAN AND BUOY OBSERVATIONS...

STATION/POSITION TIME  TEMP    WIND        PRES    WAVE   SWELL
                       AIR SEA DIR/SP/G            HT/PER HT/PER/DIR
                 (UTC) (F)     (DEG/KT/KT) (MB)    (FT/S) (FT/S/D)
BUOY 41004       0710   80 79  150/ 19/ 23 1020.3
BUOY 41008       0650   77 77  140/ 16/ 21 1018.7F   4/ 6   2/ 90/ 8
FOLLY BEACH CMAN 0700   73     210/ 17/ 19 1021.1F
CAPERS NEARSHORE 0708   70 73  180/ 16/ 21 1020.8R
FRIPP NEARSHORE  0708   74     140/ 10/ 16   N/A


STATION/POSITION TIME  TEMP    WIND        PRES    WAVE   SWELL
                       AIR SEA DIR/SP/G            HT/PER HT/PER/DIR
                 (UTC) (F)     (DEG/KT/KT) (MB)    (FT/S) (FT/S/D)
5E ST. MARYS GA  0700      76                N/A     4/ 6
FRYING PAN BUOY  0710   77 77  130/ 19/ 23 1021.6
BUOY 41025       0650   77 81  130/ 12/ 16 1024.0F   4/ 8   2/100/ 8
CAPE LOOKOUT NC  0700   74     150/ 10/ 11 1023.1F
BUOY 41002       0650   76 80  110/ 12/ 16 1023.1F   4/ 8   3/ 90/ 8
BUOY 41010       NOT AVBL
ST AUGUSTINE FL  0700   79 78  150/ 13/ 14 1018.8F


$$




USA.gov is the U.S. government's official web portal to all federal, state and local government web resources and services.